{"data":{"norad_id":59789,"epoch":"2026-09-21T11:44:07.743264Z","epoch_age_seconds":89229,"freshness":"FRESH","line1":"1 59789U 24093H   26264.48897851 -.00002290  00000+0 -73742-4 0  9997","line2":"2 59789  43.0012 182.8473 0001177 260.9473  99.1246 15.27576455132644","mean_motion":15.27576455,"eccentricity":0.0001177,"inclination_deg":43.0012,"raan_deg":182.8473,"arg_perigee_deg":260.9473,"mean_anomaly_deg":99.1246,"bstar":-7.3742e-5,"rev_number":13264,"period_min":94.266967475615,"perigee_km":482.2521482126,"apogee_km":483.86727391838,"semimajor_km":6861.1967110655,"source":"CELESTRAK","updated_at":"2026-09-22T09:00:49.072831Z"}}